Regional Weather Roundup
Issued by NWS Little Rock, AR

Home | Current Version | Previous Version | Text Only | Print | Product List | Glossary Off
Versions: 1 2 3 4 5 6 7 8 9 10 11 12 13 14 15 16 17 18 19 20 21 22 23 24 25 26 27 28 29 30 31 32

000
ASUS44 KLZK 180005
RWRLZK

WEATHER ROUNDUP FOR ARKANSAS
NATIONAL WEATHER SERVICE LITTLE ROCK AR
600 PM CST TUE JAN 17 2017

NOTE: "FAIR" INDICATES FEW OR NO CLOUDS BELOW 12,000 FEET WITH NO
SIGNIFICANT WEATHER AND/OR OBSTRUCTIONS TO VISIBILITY.

ARZ001-003-010-029-180100-
NORTHWEST ARKANSAS

CITY           SKY/WX    TMP DP  RH WIND       PRES   REMARKS
FAYETTEVILLE   CLOUDY    40  37  89 NW5       30.17S
6HR MIN TEMP:  39; 6HR MAX TEMP:  42;

FORT SMITH     CLOUDY    44  36  73 SW3       30.20R
6HR MIN TEMP:  43; 6HR MAX TEMP:  47;

HARRISON       CLOUDY    41  37  86 NW3       30.17R
6HR MIN TEMP:  41; 6HR MAX TEMP:  45;

BENTONVILLE    CLOUDY   N/A N/A N/A CALM      30.18R
ROGERS         CLOUDY    39  35  86 NW3       30.18R
6HR MIN TEMP:  38; 6HR MAX TEMP:  40;

SILOAM SPGS    CLOUDY    41  34  75 CALM      30.18R
6HR MIN TEMP:  39; 6HR MAX TEMP:  43;

HIGHFILL       CLOUDY    40  36  86 CALM      30.17R
6HR MIN TEMP:  40; 6HR MAX TEMP:  42;

SPRINGDALE     CLOUDY    41  37  87 CALM      30.18R
$$

ARZ004-005-016-180100-
NORTH CENTRAL ARKANSAS

CITY           SKY/WX    TMP DP  RH WIND       PRES   REMARKS
BATESVILLE     CLOUDY    46  37  71 NW3       30.18R
6HR MIN TEMP:  46; 6HR MAX TEMP:  52;

FLIPPIN        PTCLDY    43  34  70 CALM      30.16R
6HR MIN TEMP:  43; 6HR MAX TEMP:  46;

MTN HOME       CLOUDY    40  36  86 CALM      30.16R
6HR MIN TEMP:  40; 6HR MAX TEMP:  45;

$$

ARZ040-041-180100-
WEST CENTRAL ARKANSAS

CITY           SKY/WX    TMP DP  RH WIND       PRES   REMARKS
MENA           CLOUDY    52  46  82 SW3       30.16R
MOUNT IDA      CLOUDY    49  44  83 CALM      30.13S
6HR MIN TEMP:  49; 6HR MAX TEMP:  56;

$$

ARZ009-017-025-026-028-180100-
NORTHEAST ARKANSAS

CITY           SKY/WX    TMP DP  RH WIND       PRES   REMARKS
JONESBORO      MOCLDY    46  40  79 NW3       30.16R
6HR MIN TEMP:  46; 6HR MAX TEMP:  52;

NEWPORT        MOCLDY    46  42  86 N6        30.17R
6HR MIN TEMP:  46; 6HR MAX TEMP:  54;

WALNUT RIDGE   CLOUDY    45  37  76 NW6       30.16R
6HR MIN TEMP:  45; 6HR MAX TEMP:  48;

BLYTHEVILLE    MOCLDY    48  43  82 NW9       30.16R
6HR MIN TEMP:  48; 6HR MAX TEMP:  56;

$$

ARZ022-023-033-042-044-180100-
CENTRAL ARKANSAS

CITY           SKY/WX    TMP DP  RH WIND       PRES   REMARKS
LITTLE ROCK    CLOUDY    50  43  77 NW5       30.17R
6HR MIN TEMP:  50; 6HR MAX TEMP:  54;

JACKSONVILLE   CLOUDY    50  45  80 CALM      30.16R
6HR MIN TEMP:  50; 6HR MAX TEMP:  53;

SEARCY         CLOUDY    49  42  77 CALM      30.18S
6HR MIN TEMP:  49; 6HR MAX TEMP:  54;

HOT SPRINGS    CLOUDY    51  43  74 CALM      30.16R
6HR MIN TEMP:  51; 6HR MAX TEMP:  55;

RUSSELLVILLE   CLOUDY    45  38  76 NW6       30.19R
6HR MIN TEMP:  45; 6HR MAX TEMP:  51;

CLINTON        FAIR      45  41  87 CALM      30.17R
$$

ARZ036-180100-
EAST ARKANSAS

CITY           SKY/WX    TMP DP  RH WIND       PRES   REMARKS
WEST MEMPHIS   CLOUDY    51  47  86 CALM      30.15R
6HR MIN TEMP:  51; 6HR MAX TEMP:  54; 6HR PCP: TRACE;

$$

ARZ050-053-066-070-073-180100-
SOUTHWEST ARKANSAS

CITY           SKY/WX    TMP DP  RH WIND       PRES   REMARKS
ARKADELPHIA    FAIR      54  49  83 N3        30.16S
6HR MIN TEMP:  53; 6HR MAX TEMP:  57;

CAMDEN         CLOUDY    54  48  82 S5        30.18R
TEXARKANA      LGT RAIN  51  48  89 CALM      30.16R
6HR MIN TEMP:  51; 6HR MAX TEMP:  53; 6HR PCP:  0.01;

EL DORADO      MOCLDY    53  52  96 CALM      30.17R
6HR MIN TEMP:  52; 6HR MAX TEMP:  54; 6HR PCP:  0.03;

DE QUEEN       CLOUDY    51  45  79 N5        30.14S
6HR MIN TEMP:  51; 6HR MAX TEMP:  54;

$$

ARZ056-057-069-180100-
SOUTHEAST ARKANSAS

CITY           SKY/WX    TMP DP  RH WIND       PRES   REMARKS
PINE BLUFF     MOCLDY    54  50  86 SW5       30.17R
6HR MIN TEMP:  54; 6HR MAX TEMP:  56; 6HR PCP: TRACE;

STUTTGART      CLOUDY    52  41  66 NW6       30.17R
6HR MIN TEMP:  52; 6HR MAX TEMP:  54;

MONTICELLO     CLOUDY    53  51  93 CALM      30.16R
6HR MIN TEMP:  53; 6HR MAX TEMP:  57; 6HR PCP:  0.06;


$$






USA.gov is the U.S. government's official web portal to all federal, state and local government web resources and services.